EW1710 Weather Reports


Display with metric or nautical units.
time (UTC)temp
F
wind
direction
speed
MPH
gust
MPH
rain 1hr
in
rain 24hr
in
rain mn
in
humidity
%
barometer
mb
20260510051603 53 178 0.0 0.0 0.00 0.00 0.00 94 1010.2
20260510051101 53 200 0.0 0.0 0.00 0.00 0.00 94 1010.3
20260510050558 53 275 0.0 0.0 0.00 0.00 0.00 94 1010.0
20260510050055 53 14 3.0 3.0 0.00 0.00 0.00 93 1010.3
20260510045552 53 25 2.0 2.0 0.00 0.00 0.00 93 1010.0
20260510045048 53 143 1.0 1.0 0.00 0.00 0.00 93 1009.5
20260510044544 54 138 0.0 1.0 0.00 0.00 0.00 92 1009.3
20260510044042 54 150 0.0 0.0 0.00 0.00 0.00 92 1009.3
20260510043537 54 118 1.0 1.0 0.00 0.00 0.00 92 1009.1
20260510043033 54 175 2.0 2.0 0.00 0.00 0.00 92 1009.1
20260510042527 54 153 0.0 0.0 0.00 0.00 0.00 92 1009.2
20260510042022 54 146 0.0 0.0 0.00 0.00 0.00 92 1009.1
20260510041520 54 131 0.0 0.0 0.00 0.00 0.00 92 1009.2
20260510041017 54 165 1.0 1.0 0.00 0.00 0.00 92 1009.0
20260510040514 54 202 0.0 0.0 0.00 0.00 0.00 92 1008.9
20260510040009 55 202 0.0 0.0 0.00 0.61 0.61 91 1008.9
20260510035506 55 203 0.0 0.0 0.00 0.61 0.61 91 1009.1
20260510035005 55 203 0.0 0.0 0.00 0.61 0.61 90 1009.0
20260510034504 55 193 0.0 0.0 0.07 0.61 0.61 89 1008.9
20260510034000 55 140 3.0 3.0 0.07 0.61 0.61 90 1009.1
20260510033456 55 165 0.0 1.0 0.00 0.60 0.60 90 1009.2
20260510032954 56 158 1.0 0.0 0.00 0.60 0.60 89 1009.3
20260510032450 56 72 0.0 0.0 0.05 0.60 0.60 89 1009.1
20260510031945 56 248 5.0 7.0 0.05 0.60 0.60 89 1009.4
20260510031441 55 255 2.0 2.0 0.07 0.59 0.59 90 1009.2
20260510030937 55 321 1.0 1.0 0.00 0.58 0.58 92 1009.6
20260510030432 55 171 0.0 0.0 0.00 0.58 0.58 92 1009.0
20260510025930 54 179 0.0 0.0 0.00 0.58 0.58 92 1009.2
20260510025427 54 178 0.0 0.0 0.00 0.58 0.58 92 1009.1
20260510024925 55 232 0.0 0.0 0.00 0.58 0.58 92 1009.3
20260510024421 55 199 0.0 0.0 0.00 0.58 0.58 91 1009.1
20260510023917 55 216 0.0 0.0 0.05 0.58 0.58 90 1008.9
20260510023413 55 270 2.0 2.0 0.17 0.58 0.58 90 1008.8
20260510022911 55 179 2.0 2.0 0.19 0.57 0.57 89 1009.0
20260510022409 56 299 2.0 2.0 0.24 0.56 0.56 88 1009.7
20260510021909 56 286 5.0 6.0 0.47 0.54 0.54 89 1009.7
20260510021407 54 211 5.0 9.0 0.40 0.51 0.51 96 1009.5
20260510020903 53 177 0.0 0.0 0.17 0.47 0.47 96 1009.1
20260510020358 53 96 0.0 0.0 0.00 0.44 0.44 96 1008.6
20260510015854 53 96 0.0 0.0 0.00 0.44 0.44 96 1008.5
20260510015350 53 96 0.0 0.0 0.00 0.44 0.44 96 1008.5
20260510014845 53 96 0.0 0.0 0.00 0.44 0.44 95 1008.6
20260510014343 53 97 0.0 0.0 0.00 0.44 0.44 95 1008.4
20260510013839 53 126 0.0 0.0 0.00 0.44 0.44 95 1008.0
20260510013335 53 126 0.0 0.0 0.00 0.44 0.44 95 1008.3
20260510012830 53 126 0.0 0.0 0.00 0.44 0.44 94 1008.5
20260510012330 53 126 0.0 0.0 0.00 0.44 0.44 94 1008.3
20260510011825 53 126 0.0 0.0 0.00 0.44 0.44 94 1008.1
20260510011320 53 126 0.0 0.0 0.00 0.44 0.44 94 1008.3
20260510010817 54 127 0.0 0.0 0.00 0.44 0.44 93 1008.1
20260510010314 54 126 0.0 0.0 0.00 0.44 0.44 93 1008.1
20260510005811 54 127 1.0 1.0 0.00 0.44 0.44 93 1008.0
20260510005307 54 165 0.0 0.0 0.00 0.44 0.44 92 1008.0
20260510004805 54 166 0.0 0.0 0.00 0.44 0.44 91 1008.0
20260510004302 55 204 0.0 0.0 0.00 0.44 0.44 90 1008.0
20260510003759 55 99 0.0 0.0 0.00 0.44 0.44 90 1008.1
20260510003257 55 118 1.0 1.0 0.00 0.44 0.44 89 1008.2
20260510002755 55 154 1.0 1.0 0.00 0.44 0.44 90 1008.1
20260510002253 56 90 0.0 0.0 0.00 0.44 0.44 89 1007.9
20260510001749 56 18 2.0 2.0 0.00 0.44 0.44 89 1008.0
20260510001248 56 191 0.0 0.0 0.00 0.44 0.44 89 1008.0
20260510000743 56 287 1.0 0.0 0.00 0.44 0.44 88 1007.9
20260510000241 56 229 1.0 1.0 0.00 0.44 0.44 89 1008.0
20260509235737 56 264 2.0 2.0 0.07 0.44 0.44 89 1008.0
20260509235234 56 254 2.0 2.0 0.07 0.44 0.44 89 1008.1
20260509234730 56 49 0.0 0.0 0.07 0.44 0.44 89 1008.3
20260509234227 56 124 0.0 1.0 0.00 0.43 0.43 89 1008.3
20260509233725 56 222 1.0 1.0 0.00 0.43 0.43 90 1008.3
20260509233222 55 295 1.0 2.0 0.05 0.43 0.43 89 1008.0
20260509232718 56 54 1.0 1.0 0.17 0.43 0.43 89 1007.9
20260509232216 56 323 3.0 2.0 0.26 0.42 0.42 88 1008.0
20260509231712 56 329 8.0 11.0 0.42 0.40 0.40 88 1008.3
20260509231209 56 299 6.0 10.0 1.02 0.38 0.38 88 1008.5
20260509230706 57 260 5.0 7.0 0.78 0.34 0.34 86 1008.6
20260509230157 59 245 7.0 8.0 0.07 0.22 0.22 79 1008.9
20260509225653 64 291 10.0 15.0 0.00 0.21 0.21 66 1007.3
20260509225149 68 280 5.0 6.0 0.00 0.21 0.21 52 1007.2
20260509224645 68 273 5.0 6.0 0.00 0.21 0.21 50 1005.9
20260509224142 68 333 4.0 6.0 0.00 0.21 0.21 49 1005.9
20260509223639 68 200 2.0 3.0 0.00 0.21 0.21 48 1005.8
20260509223136 68 294 1.0 2.0 0.00 0.21 0.21 49 1005.5
20260509222633 68 230 2.0 2.0 0.00 0.21 0.21 48 1005.0
20260509222128 69 83 1.0 1.0 0.00 0.21 0.21 48 1005.5
20260509221624 68 199 2.0 3.0 0.00 0.21 0.21 49 1005.4
20260509221120 69 10 1.0 2.0 0.00 0.21 0.21 50 1005.6
20260509220616 69 220 1.0 1.0 0.00 0.21 0.21 50 1005.4
20260509220113 69 28 3.0 5.0 0.00 0.21 0.21 49 1005.5
20260509215609 69 114 0.0 0.0 0.00 0.21 0.21 51 1005.7
20260509215106 70 74 4.0 6.0 0.00 0.21 0.21 47 1005.4
20260509214602 71 228 4.0 6.0 0.00 0.21 0.21 46 1005.4
20260509214059 71 308 5.0 6.0 0.00 0.21 0.21 45 1005.7
20260509213555 72 300 2.0 2.0 0.00 0.21 0.21 45 1005.6
20260509213052 72 111 0.0 0.0 0.00 0.21 0.21 47 1005.4
20260509212549 71 191 3.0 3.0 0.00 0.21 0.21 48 1005.5
20260509212046 71 182 4.0 3.0 0.00 0.21 0.21 51 1005.5
20260509211542 71 128 2.0 2.0 0.00 0.21 0.21 48 1005.2
20260509211039 71 176 1.0 1.0 0.00 0.21 0.21 51 1005.3
20260509210536 71 301 5.0 6.0 0.00 0.21 0.21 49 1005.8
20260509210032 71 60 2.0 2.0 0.00 0.21 0.21 49 1005.7
20260509205526 71 296 2.0 3.0 0.00 0.21 0.21 51 1005.8
20260509205022 71 179 1.0 3.0 0.00 0.21 0.21 51 1005.8
20260509204518 71 325 1.0 3.0 0.00 0.21 0.21 51 1005.9
20260509204015 71 179 3.0 5.0 0.00 0.21 0.21 50 1005.7
20260509203510 71 341 1.0 2.0 0.00 0.21 0.21 51 1006.0
20260509203009 71 188 4.0 6.0 0.00 0.21 0.21 49 1006.0
20260509202503 71 283 3.0 3.0 0.00 0.21 0.21 50 1006.2
20260509201959 70 259 2.0 2.0 0.00 0.21 0.21 51 1006.3
20260509201454 71 92 4.0 6.0 0.00 0.21 0.21 49 1006.4
20260509200952 71 172 2.0 3.0 0.00 0.21 0.21 51 1006.4
20260509200446 71 170 5.0 9.0 0.00 0.21 0.21 50 1006.4
20260509195943 71 162 8.0 9.0 0.00 0.21 0.21 51 1006.6
20260509195433 71 336 3.0 3.0 0.00 0.21 0.21 50 1006.7
20260509194933 72 314 1.0 2.0 0.00 0.21 0.21 48 1006.8
20260509194428 71 253 4.0 5.0 0.00 0.21 0.21 51 1006.9
20260509193926 71 321 6.0 7.0 0.00 0.21 0.21 48 1006.4
20260509193425 70 280 4.0 5.0 0.00 0.21 0.21 50 1006.6
20260509192922 70 189 5.0 7.0 0.00 0.21 0.21 49 1006.8
20260509192418 70 251 3.0 5.0 0.00 0.21 0.21 51 1007.3
20260509191913 71 179 6.0 8.0 0.00 0.21 0.21 52 1007.3
20260509191409 70 236 4.0 6.0 0.00 0.21 0.21 50 1007.1
20260509190905 69 162 3.0 3.0 0.00 0.21 0.21 54 1007.4
20260509190403 69 220 7.0 9.0 0.00 0.21 0.21 52 1007.4
20260509185900 69 162 4.0 5.0 0.00 0.21 0.21 53 1007.5
20260509185356 70 194 5.0 7.0 0.00 0.21 0.21 52 1007.4
20260509184853 68 221 4.0 6.0 0.00 0.21 0.21 52 1007.6
20260509184350 68 305 3.0 2.0 0.00 0.21 0.21 54 1007.7
20260509183847 68 182 6.0 8.0 0.00 0.21 0.21 54 1007.8
20260509183342 68 118 1.0 1.0 0.00 0.21 0.21 55 1007.4
20260509182838 68 2 2.0 2.0 0.00 0.21 0.21 57 1007.7
20260509182336 68 276 7.0 11.0 0.00 0.21 0.21 53 1007.7
20260509181833 68 176 5.0 7.0 0.00 0.21 0.21 53 1007.7
20260509181330 68 169 6.0 8.0 0.00 0.21 0.21 54 1007.5
20260509180827 69 327 3.0 3.0 0.00 0.21 0.21 54 1007.5
20260509180323 69 84 2.0 2.0 0.00 0.21 0.21 53 1007.4
20260509175820 69 210 1.0 2.0 0.00 0.21 0.21 54 1007.7
20260509175316 68 341 5.0 6.0 0.00 0.21 0.21 54 1007.3
20260509174812 67 148 1.0 2.0 0.00 0.21 0.21 55 1007.4
20260509174308 67 177 1.0 1.0 0.00 0.21 0.21 58 1007.9
20260509173804 68 190 4.0 6.0 0.00 0.21 0.21 54 1007.8
20260509173300 68 275 4.0 5.0 0.00 0.21 0.21 55 1007.9
20260509172756 68 151 5.0 6.0 0.00 0.21 0.21 55 1007.7
20260509172253 67 184 4.0 7.0 0.00 0.21 0.21 56 1007.7
20260509171748 66 231 6.0 8.0 0.00 0.21 0.21 56 1007.9
20260509171245 66 355 3.0 3.0 0.00 0.21 0.21 57 1007.7
20260509170741 66 215 2.0 2.0 0.00 0.21 0.21 56 1007.9
20260509170237 66 176 2.0 2.0 0.00 0.21 0.21 57 1007.9
20260509165736 66 149 5.0 9.0 0.00 0.21 0.21 60 1007.5
20260509165232 65 197 1.0 1.0 0.00 0.21 0.21 64 1007.6
20260509164728 65 258 2.0 3.0 0.00 0.21 0.21 61 1007.7
20260509164224 65 242 3.0 3.0 0.00 0.21 0.21 62 1007.9
20260509163721 66 282 3.0 5.0 0.00 0.21 0.21 58 1007.8
20260509163217 65 263 4.0 5.0 0.00 0.21 0.21 67 1008.0
20260509162715 65 323 4.0 5.0 0.00 0.21 0.21 61 1008.1
20260509162210 64 289 1.0 1.0 0.00 0.21 0.21 59 1008.2
20260509161706 65 334 4.0 6.0 0.00 0.21 0.21 60 1008.3
20260509161203 66 309 4.0 7.0 0.00 0.21 0.21 60 1008.4
20260509160658 65 238 1.0 1.0 0.00 0.21 0.21 64 1008.3
20260509160154 63 345 2.0 2.0 0.00 0.21 0.21 65 1008.3
20260509155650 61 285 3.0 3.0 0.00 0.21 0.21 70 1008.5
20260509155146 62 234 6.0 10.0 0.00 0.21 0.21 69 1008.4
20260509154642 63 342 3.0 5.0 0.00 0.21 0.21 68 1008.4
20260509154139 64 314 3.0 5.0 0.00 0.21 0.21 69 1008.3
20260509153636 64 211 3.0 5.0 0.00 0.21 0.21 65 1008.3
20260509153133 64 141 1.0 1.0 0.00 0.21 0.21 68 1008.2
20260509152628 64 49 1.0 1.0 0.00 0.21 0.21 70 1008.3
20260509152126 63 224 2.0 3.0 0.00 0.21 0.21 71 1008.3
20260509151622 62 252 4.0 5.0 0.00 0.21 0.21 71 1008.2
20260509151120 61 332 4.0 5.0 0.00 0.21 0.21 76 1008.3
20260509150618 59 267 2.0 2.0 0.00 0.21 0.21 77 1008.3
20260509150116 60 10 1.0 1.0 0.00 0.21 0.21 77 1008.5
20260509145611 60 92 2.0 2.0 0.00 0.21 0.21 78 1008.3
20260509145107 60 290 5.0 6.0 0.00 0.21 0.21 77 1008.4
20260509144604 59 271 4.0 5.0 0.00 0.21 0.21 80 1008.3
20260509144101 60 334 2.0 5.0 0.00 0.21 0.21 80 1008.2
20260509143558 59 71 0.0 1.0 0.00 0.21 0.21 82 1008.1
20260509143056 59 138 2.0 3.0 0.00 0.21 0.21 83 1008.2
20260509142550 59 186 1.0 1.0 0.00 0.21 0.21 82 1008.1
20260509142047 59 157 0.0 1.0 0.00 0.21 0.21 84 1008.5
20260509141543 58 230 1.0 2.0 0.00 0.21 0.21 84 1008.3
20260509141040 57 276 3.0 3.0 0.00 0.21 0.21 85 1008.4
20260509140537 57 145 0.0 1.0 0.00 0.21 0.21 87 1008.6
20260509140035 57 197 1.0 1.0 0.00 0.21 0.21 87 1008.5
20260509135532 57 190 1.0 2.0 0.00 0.21 0.21 88 1008.6
20260509135030 57 274 2.0 2.0 0.00 0.21 0.21 87 1008.6
20260509134526 57 356 0.0 0.0 0.00 0.21 0.21 87 1008.4
20260509134024 57 275 0.0 0.0 0.00 0.21 0.21 86 1008.6
20260509133520 57 258 1.0 2.0 0.00 0.21 0.21 86 1008.3
20260509133018 57 263 3.0 6.0 0.00 0.21 0.21 86 1008.5
20260509132516 57 235 2.0 2.0 0.00 0.21 0.21 86 1008.7
20260509132014 57 161 0.0 0.0 0.00 0.21 0.21 88 1008.5
20260509131510 56 8 1.0 1.0 0.00 0.21 0.21 89 1008.4
20260509131007 56 192 1.0 1.0 0.00 0.21 0.21 90 1008.3
20260509130502 55 159 1.0 1.0 0.00 0.21 0.21 92 1008.3
20260509130000 55 186 0.0 0.0 0.00 0.21 0.21 91 1008.3
20260509125456 55 213 1.0 1.0 0.00 0.21 0.21 91 1008.5
20260509124952 55 113 0.0 1.0 0.00 0.21 0.21 91 1008.6
20260509124449 55 152 0.0 0.0 0.00 0.21 0.21 91 1008.4
20260509123946 55 184 1.0 2.0 0.00 0.21 0.21 92 1008.4
20260509123444 55 99 0.0 0.0 0.00 0.21 0.21 92 1008.7
20260509122939 55 344 1.0 1.0 0.00 0.21 0.21 93 1008.8
20260509122437 54 262 2.0 2.0 0.00 0.21 0.21 93 1008.7
20260509121933 54 153 3.0 3.0 0.00 0.21 0.21 93 1008.6
20260509121430 54 172 1.0 1.0 0.00 0.21 0.21 94 1008.7
20260509120928 54 147 0.0 0.0 0.00 0.21 0.21 94 1009.0
20260509120426 54 329 0.0 0.0 0.00 0.21 0.21 94 1008.9
20260509115924 53 112 0.0 0.0 0.00 0.21 0.21 95 1008.7
20260509115421 53 79 1.0 1.0 0.00 0.21 0.21 95 1008.8
20260509114918 53 163 3.0 5.0 0.00 0.21 0.21 95 1008.8
20260509114417 53 152 0.0 0.0 0.00 0.21 0.21 95 1008.8
20260509113916 53 167 1.0 1.0 0.00 0.21 0.21 95 1008.8
20260509113413 53 188 0.0 0.0 0.00 0.21 0.21 95 1008.9
20260509112910 53 179 1.0 1.0 0.00 0.21 0.21 95 1008.8
20260509112407 53 110 0.0 0.0 0.00 0.21 0.21 95 1008.6
20260509111904 53 159 0.0 1.0 0.00 0.21 0.21 96 1008.8
20260509111400 53 146 0.0 0.0 0.00 0.21 0.21 96 1008.7
20260509110858 53 149 0.0 1.0 0.00 0.21 0.21 96 1008.6
20260509110354 52 191 1.0 1.0 0.00 0.21 0.21 96 1008.6
20260509105853 52 219 0.0 0.0 0.00 0.21 0.21 96 1008.8
20260509105350 52 167 0.0 0.0 0.00 0.21 0.21 96 1008.4
20260509104847 52 162 0.0 0.0 0.00 0.21 0.21 96 1008.2
20260509104343 52 170 2.0 2.0 0.00 0.21 0.21 96 1008.5
20260509103841 52 159 0.0 1.0 0.00 0.21 0.21 96 1008.4
20260509103338 52 140 1.0 1.0 0.00 0.21 0.21 96 1008.2
20260509102837 52 172 0.0 0.0 0.00 0.21 0.21 96 1008.2
20260509102334 52 119 0.0 0.0 0.00 0.21 0.21 96 1008.3
20260509101830 52 158 0.0 0.0 0.00 0.21 0.21 96 1008.6
20260509101326 52 178 0.0 0.0 0.00 0.21 0.21 96 1008.4
20260509100824 52 171 0.0 0.0 0.00 0.21 0.21 96 1008.3
20260509100321 52 139 0.0 0.0 0.00 0.21 0.21 96 1008.3
20260509095817 52 152 0.0 1.0 0.00 0.21 0.21 96 1008.6
20260509095315 52 147 0.0 0.0 0.00 0.21 0.21 96 1008.4
20260509094812 52 161 0.0 0.0 0.00 0.21 0.21 96 1008.5
20260509094309 52 165 0.0 0.0 0.00 0.21 0.21 95 1008.7
20260509093806 52 174 1.0 1.0 0.00 0.21 0.21 96 1008.6
20260509093303 52 159 0.0 0.0 0.00 0.21 0.21 95 1008.8
20260509092802 52 160 1.0 1.0 0.00 0.21 0.21 95 1008.8
20260509092259 52 173 1.0 1.0 0.00 0.21 0.21 96 1008.5
20260509091757 52 148 1.0 1.0 0.00 0.21 0.21 95 1008.6
20260509091253 52 163 1.0 1.0 0.00 0.21 0.21 96 1008.8
20260509090751 52 189 2.0 2.0 0.00 0.21 0.21 96 1008.9
20260509090248 52 143 0.0 0.0 0.00 0.21 0.21 96 1008.8
20260509085746 52 164 1.0 2.0 0.00 0.21 0.21 95 1008.9
20260509085243 52 178 0.0 0.0 0.00 0.21 0.21 95 1009.0
20260509084739 52 153 0.0 0.0 0.00 0.21 0.21 95 1008.9
20260509084236 52 167 0.0 0.0 0.00 0.21 0.21 95 1009.2
20260509083734 52 162 1.0 1.0 0.00 0.21 0.21 95 1009.0
20260509083230 52 207 0.0 0.0 0.00 0.21 0.21 95 1009.1
20260509082727 52 166 1.0 1.0 0.00 0.21 0.21 95 1009.1
20260509082224 52 185 1.0 2.0 0.00 0.21 0.21 95 1009.2
20260509081720 52 138 0.0 1.0 0.00 0.21 0.21 95 1009.1
20260509081218 52 210 3.0 3.0 0.00 0.21 0.21 95 1009.1
20260509080716 52 220 1.0 1.0 0.00 0.21 0.21 95 1009.0
20260509080213 52 182 1.0 1.0 0.00 0.21 0.21 95 1009.1
20260509075712 52 145 1.0 1.0 0.00 0.21 0.21 95 1009.2
20260509075209 52 170 0.0 0.0 0.00 0.21 0.21 95 1009.3
20260509074706 52 138 0.0 0.0 0.00 0.21 0.21 95 1009.1
20260509074203 52 163 0.0 1.0 0.00 0.21 0.21 95 1009.4
20260509073659 52 174 0.0 0.0 0.00 0.21 0.21 95 1009.5
20260509073155 52 84 0.0 0.0 0.00 0.21 0.21 95 1009.0
20260509072652 52 138 0.0 0.0 0.00 0.21 0.21 95 1009.3
20260509072149 52 172 1.0 1.0 0.00 0.21 0.21 95 1009.1
20260509071646 52 162 1.0 1.0 0.00 0.21 0.21 95 1009.1
20260509071143 52 282 0.0 0.0 0.00 0.21 0.21 95 1009.2
20260509070640 52 175 1.0 1.0 0.00 0.21 0.21 95 1009.5
20260509070136 52 222 1.0 2.0 0.05 0.21 0.21 95 1009.3
20260509065632 52 168 1.0 1.0 0.05 0.21 0.21 95 1009.3
20260509065128 52 184 0.0 0.0 0.00 0.20 0.20 95 1009.3
20260509064626 52 212 2.0 2.0 0.00 0.20 0.20 95 1009.4
20260509064124 52 154 0.0 0.0 0.00 0.20 0.20 95 1009.4
20260509063620 52 137 0.0 0.0 0.07 0.20 0.20 95 1009.4
20260509063117 52 165 1.0 1.0 0.07 0.20 0.20 95 1009.4
20260509062614 52 154 0.0 0.0 0.00 0.19 0.19 95 1009.7
20260509062111 52 154 1.0 1.0 0.00 0.19 0.19 95 1009.5
20260509061608 52 232 1.0 1.0 0.00 0.19 0.19 95 1009.9
20260509061105 51 159 2.0 2.0 0.00 0.19 0.19 95 1009.9
20260509060603 51 170 0.0 0.0 0.00 0.19 0.19 95 1010.0
20260509060058 51 170 1.0 2.0 0.05 0.19 0.19 95 1009.7
20260509055554 51 142 0.0 0.0 0.12 0.19 0.19 95 1010.2
20260509055050 51 85 1.0 1.0 0.12 0.18 0.18 95 1010.0
20260509054547 51 178 1.0 1.0 0.12 0.17 0.17 95 1010.2
20260509054045 51 182 1.0 1.0 0.26 0.16 0.16 95 1010.2
20260509053543 51 168 0.0 0.0 0.50 0.16 0.16 95 1010.3
20260509053040 51 157 0.0 0.0 0.24 0.12 0.12 95 1010.2
20260509052538 51 124 0.0 0.0 0.00 0.08 0.08 95 1010.3
20260509052035 51 187 1.0 1.0 0.05 0.08 0.08 95 1010.4